User: anonymous   Login
Location: Bosdarros
(43.2167°N, 0.3667°W)
Time: 13:10:14
(UTC+00:00)
Language:

Cosmos 405 Rocket - Orbit

View from above orbital plane
View from above orbital plane
View from above satellite
View from above satellite

Ground track
Ground track

The orbit data is extracted from the following two-line orbital elements,

1 05118U 71028B   21173.84825744  .00000044  00000-0  82441-6 0  9992
2 05118  81.2560 270.8215 0047201  44.3716 316.1279 15.15044842725886
Epoch (UTC): 22 June 2021 20:21:29
Eccentricity: 0.0047201
inclination: 81.2560°
perigee height: 488 km
apogee height: 553 km
right ascension of ascending node: 270.8215°
argument of perigee: 44.3716°
revolutions per day: 15.15044842
mean anomaly at epoch: 316.1279°
orbit number at epoch: 72588

The dashed part of the orbit path shows where the satellite is in the earth's shadow,  

DLR